Location: ??
(35.5090°N, 139.6783°E)
Time: 19:08:11
(UTC+00:00)

MOS 1 Rocket - Pass Details

Date: 08 November 2025
Orbit: 610 x 813 km, 97.4° (Epoch: 08 December)

Event Time Altitude Azimuth Distance (km) Brightness Sun altitude
Rises 08:15:06 0° 146° (SE) 2,874 6.3 -7.6°
Reaches altitude 10° 08:17:26 10° 137° (SE) 1,963 5.4 -8.1°
Maximum altitude 08:21:15 34° 73° (ENE) 1,018 3.6 -8.8°
Drops below altitude 10° 08:25:06 10° 8° (N) 1,977 5.4 -9.6°
Sets 08:27:26 0° 359° (N) 2,899 6.4 -10.1°
